Notices

What's New in latest Release from April 7th, 2021:

- Updated Glossary, including Speed of Maximum Gust, and Total Hourly Precipitation

- Updated national and regional climate services offices contacts and prices information

- Addition of station inventory lists for 1981-2010, 1971-2000, and 1961-1990 Normals.

If you haven't already, please take our survey and provide feedback about our website: https://eccc.sondage-survey.ca/f/LanguageSelection.aspx?s=442ca660-fcf1-47c0-95a9-59707d6fd709

Hourly Data Report for April 10, 2021

CLYDE RIVER A
NUNAVUT
Current Station Operator: NAVCAN

70°29'09.000" N
68°31'01.000" W
26.50 m
2400804
71090
YCY

Download Data

Hourly Data (April 2021)
Hourly Data Report for April 10, 2021
TIME
LST
Temp Definition
°C
Dew Point Definition
°C
Rel Hum Definition
%
Precip. Amount Definition
mm

Wind Dir Definition
10's deg

Wind Spd Definition
km/h
Visibility Definition
km
Stn Press Definition
kPa
Hmdx Definition


Wind Chill Definition


Weather Definition


00:00 -6.0 -10.5 71 0.0 22 5 16.1 101.79   -8 LegendNANA
01:00 -3.5 -9.1 65 0.0 21 41 14.5 101.78   -12 Snow
02:00 -4.5 -9.8 67 0.0 20 34 16.1 101.80   -13 LegendNANA
03:00 -5.8 -9.1 77 0.0 25 55 1.6 101.71   -16 Snow
04:00 -5.6 -9.5 74 0.0 25 37 4.0 101.76   -15 Snow
05:00 -5.7 -10.1 71 0.0 19 30 16.1 101.78   -14 LegendNANA
06:00 -6.0 -9.5 77 0.0 22 37 4.8 101.77   -15 Snow
07:00 -4.9 -8.0 79 0.0 23 46 1.2 101.73   -14 Snow
08:00 -2.9 -6.2 78 0.0 21 54 1.2 101.65   -12 Snow
09:00 -3.7 -7.5 75 0.0 21 30 16.1 101.79   -11 Snow
10:00 -2.0 -5.8 75 0.0 20 34 16.1 101.81   -10 LegendNANA
11:00 -0.4 -5.4 69 0.0 22 21 16.1 101.84   -6 LegendNANA
12:00 -0.3 -5.2 70 0.0 19 15 16.1 101.87   -5 LegendNANA
13:00 -1.0 -5.1 74 0.0 LegendMM 4 16.1 101.92   -2 LegendNANA
14:00 -1.1 -6.5 67 0.0 21 28 16.1 101.99   -8 LegendNANA
15:00 -1.0 -7.6 61 0.0 21 26 16.1 102.04   -7 LegendNANA
16:00 -1.7 -9.4 56 0.0 22 24 16.1 102.05   -8 LegendNANA
17:00 -1.1 -8.7 57 0.0 23 17 16.1 102.06   -6 LegendNANA
18:00 -0.5 -7.8 58 0.0 22 28 16.1 102.02   -7 LegendNANA
19:00 -0.3 -8.8 53 0.0 LegendMM 4 16.1 102.03   -2 LegendNANA
20:00 -0.2 -10.1 48 0.0 24 13 16.1 102.00   -4 LegendNANA
21:00 -0.8 -9.0 54 0.0 26 17 16.1 101.94   -6 LegendNANA
22:00 -4.6 -8.4 75 0.0 13 21 16.1 101.90   -11 LegendNANA
23:00 -4.3 -9.1 70 0.0 LegendMM 5 16.1 101.82   -6 LegendNANA

Notes on Data Quality.

Legend

  • E = Estimated
  • M = Missing
  • NA = Not Available*
  • [empty] = Indicates an unobserved value
Date modified: